EW5610 Weather Reports


time (UTC)temp
C
wind
direction
speed
KPH
gust
KPH
rain 1hr
cm
rain 24hr
cm
rain mn
cm
humidity
%
barometer
mb
20260504231554 13 202 14.5 33.8 0.00 0.00 0.00 65 1007.8
20260504230048 13 182 12.9 27.4 0.00 0.00 0.00 62 1007.7
20260504224553 14 214 17.7 32.2 0.00 0.00 0.00 59 1007.8
20260504223047 15 229 14.5 35.4 0.00 0.00 0.00 57 1007.7
20260504221557 15 234 17.7 29.0 0.00 0.00 0.00 56 1007.5
20260504220048 16 223 16.1 33.8 0.00 0.00 0.00 54 1007.6
20260504214550 16 197 16.1 35.4 0.00 0.00 0.00 52 1007.6
20260504213051 16 211 22.5 40.2 0.00 0.00 0.00 51 1007.6
20260504211543 16 163 19.3 41.8 0.00 0.00 0.00 49 1007.3
20260504210053 17 193 14.5 37.0 0.00 0.00 0.00 46 1007.2
20260504204619 17 168 14.5 41.8 0.00 0.00 0.00 45 1007.3
20260504203040 17 182 19.3 35.4 0.00 0.00 0.00 44 1007.2
20260504201540 17 213 16.1 37.0 0.00 0.00 0.00 43 1007.3
20260504200041 17 203 17.7 33.8 0.00 0.00 0.00 43 1007.3
20260504194547 17 174 24.1 43.5 0.00 0.00 0.00 44 1007.6
20260504193036 17 212 17.7 43.5 0.00 0.00 0.00 42 1007.5
20260504191536 18 240 19.3 27.4 0.00 0.00 0.00 42 1007.3
20260504190040 17 164 12.9 35.4 0.00 0.00 0.00 43 1007.5
20260504184537 17 198 25.7 45.1 0.00 0.00 0.00 39 1007.8
20260504183034 18 202 16.1 32.2 0.00 0.00 0.00 36 1007.8
20260504181533 18 205 11.3 35.4 0.00 0.00 0.00 36 1007.8
20260504180032 18 145 22.5 40.2 0.00 0.00 0.00 35 1008.3
20260504174531 17 226 24.1 51.5 0.00 0.00 0.00 35 1009.2
20260504173030 17 227 19.3 41.8 0.00 0.00 0.00 34 1008.3
20260504171539 17 220 24.1 37.0 0.00 0.00 0.00 34 1008.4
20260504081527 6 279 0.0 0.0 0.00 0.00 0.00 70 1009.7
20260504050001 5 279 0.0 0.0 0.00 0.00 0.00 58 1009.4
20260504044500 5 279 0.0 0.0 0.00 0.00 0.00 58 1009.4
20260504043100 4 279 0.0 0.0 0.00 0.00 0.00 58 1009.4
20260504041558 4 279 0.0 0.0 0.00 0.00 0.00 59 1009.4
20260504040056 4 279 0.0 0.0 0.00 0.00 0.00 59 1009.3
20260504034613 4 279 0.0 0.0 0.00 0.00 0.00 59 1009.3
20260504033055 5 279 0.0 0.0 0.00 0.00 0.00 58 1009.3
20260504031555 5 279 0.0 0.0 0.00 0.00 0.00 57 1009.1
20260504030054 5 279 0.0 0.0 0.00 0.00 0.00 56 1009.1
20260504024554 5 279 0.0 0.0 0.00 0.00 0.00 55 1009.1
20260504023054 5 279 0.0 0.0 0.00 0.00 0.00 54 1009.0
20260504021554 6 279 0.0 0.0 0.00 0.00 0.00 53 1008.9
20260504020053 6 279 0.0 0.0 0.00 0.00 0.00 52 1008.9
20260504014603 6 279 0.0 0.0 0.00 0.00 0.00 51 1008.8
20260504013053 6 279 0.0 0.0 0.00 0.00 0.00 50 1008.8
20260504011557 6 279 0.0 0.0 0.00 0.00 0.00 49 1008.4
20260504010056 7 279 0.0 0.0 0.00 0.00 0.00 47 1008.3
20260504004549 7 279 0.0 0.0 0.00 0.00 0.00 46 1007.9
20260504003052 8 279 0.0 0.0 0.00 0.00 0.00 44 1007.8
20260504001548 9 279 0.0 0.0 0.00 0.00 0.00 40 1007.6
20260504000049 10 279 0.0 0.0 0.00 0.00 0.00 37 1007.4
20260503234550 11 279 0.0 3.2 0.00 0.00 0.00 36 1007.3
20260503233046 11 279 0.0 8.0 0.00 0.00 0.00 35 1007.3